Location: Narrabri
(30.3170°S, 149.7830°E)
Time: 03:48:18
(UTC+11:00)

N. Korean satellite - Pass Details

Date: 10 October 2017
Orbit: 461 x 513 km, 97.2° (Epoch: 12 December)

Event Time Altitude Azimuth Distance (km) Brightness Sun altitude
Rises 19:55:38 0° 174° (S) 2,663 10.4 -11.0°
Reaches altitude 10° 19:57:46 10° 177° (S) 1,767 9.6 -11.4°
Maximum altitude 20:01:32 61° 257° (WSW) 594 7.3 -12.2°
Drops below altitude 10° 20:05:14 10° 337° (NNW) 1,730 9.4 -13.0°
Sets 20:07:18 0° 341° (NNW) 2,601 10.3 -13.4°
